When you browse on this site, cookies collect data to enhance your experience and personalize the content and advertising you see.
Visit our Privacy Policy to learn more. By continuing to use the site, you agree to this use of cookies and data.
  • In Schweiz
  • Länderverzeichnis
  • Für 7 Tage
  • Wassertemperatur
  • Satellitenkarten
  • Wetterkarte
  • Widgets
  • user-avatar
    Anmelden

    Stündliche Wetter Tomashivka

    Heute, 17 Juli, Mittwoch

    Zeit Temperatur Niederschläge Wind Luftdruck Luftfeuchtigkeit
    00:00 +15°C° 0 mm 1 m/S 743 mmHg 80%
    01:00 +15°C° 0 mm 1 m/S 743 mmHg 82%
    02:00 +15°C° 0 mm 2 m/S 743 mmHg 83%
    03:00 +15°C° 0 mm 2 m/S 743 mmHg 83%
    04:00 +15°C° 0 mm 2 m/S 743 mmHg 84%
    05:00 +15°C° 0 mm 2 m/S 743 mmHg 84%
    06:00 +16°C° 0.1 mm 2 m/S 743 mmHg 83%
    07:00 +17°C° 0.1 mm 3 m/S 742 mmHg 82%
    08:00 +18°C° 0.1 mm 4 m/S 742 mmHg 80%
    09:00 +19°C° 0.4 mm 4 m/S 742 mmHg 76%
    10:00 +19°C° 0.4 mm 5 m/S 743 mmHg 72%
    11:00 +20°C° 0.4 mm 5 m/S 743 mmHg 67%
    12:00 +20°C° 0 mm 5 m/S 742 mmHg 65%
    13:00 +21°C° 0 mm 4 m/S 742 mmHg 62%
    14:00 +22°C° 0 mm 4 m/S 742 mmHg 60%
    15:00 +21°C° 0.2 mm 4 m/S 742 mmHg 63%
    16:00 +21°C° 0.2 mm 4 m/S 742 mmHg 66%
    17:00 +21°C° 0.2 mm 4 m/S 742 mmHg 69%
    18:00 +19°C° 0.3 mm 3 m/S 742 mmHg 74%
    19:00 +18°C° 0.3 mm 3 m/S 742 mmHg 80%
    20:00 +16°C° 0.3 mm 2 m/S 742 mmHg 86%
    21:00 +16°C° 0.4 mm 2 m/S 742 mmHg 87%
    22:00 +15°C° 0.4 mm 2 m/S 742 mmHg 88%
    23:00 +15°C° 0.4 mm 2 m/S 742 mmHg 90%

    Morgen, 18 Juli, Donnerstag

    Zeit Temperatur Niederschläge Wind Luftdruck Luftfeuchtigkeit
    00:00 +14°C° 0 mm 2 m/S 742 mmHg 91%
    01:00 +13°C° 0 mm 2 m/S 742 mmHg 92%
    02:00 +12°C° 0 mm 3 m/S 742 mmHg 94%
    03:00 +11°C° 0 mm 3 m/S 742 mmHg 94%
    04:00 +11°C° 0 mm 3 m/S 742 mmHg 94%
    05:00 +11°C° 0 mm 3 m/S 742 mmHg 95%
    06:00 +13°C° 0 mm 3 m/S 743 mmHg 90%
    07:00 +14°C° 0 mm 4 m/S 743 mmHg 85%
    08:00 +17°C° 0 mm 4 m/S 743 mmHg 80%
    09:00 +18°C° 0 mm 4 m/S 743 mmHg 75%
    10:00 +19°C° 0 mm 5 m/S 743 mmHg 70%
    11:00 +20°C° 0 mm 5 m/S 743 mmHg 64%
    12:00 +21°C° 0.4 mm 5 m/S 743 mmHg 65%
    13:00 +21°C° 0.4 mm 6 m/S 743 mmHg 65%
    14:00 +21°C° 0.4 mm 6 m/S 744 mmHg 66%
    15:00 +21°C° 0.5 mm 5 m/S 744 mmHg 69%
    16:00 +21°C° 0.5 mm 5 m/S 744 mmHg 72%
    17:00 +21°C° 0.5 mm 5 m/S 744 mmHg 75%
    18:00 +19°C° 0.1 mm 4 m/S 744 mmHg 80%
    19:00 +18°C° 0.1 mm 3 m/S 744 mmHg 85%
    20:00 +16°C° 0.1 mm 3 m/S 745 mmHg 90%
    21:00 +16°C° 0 mm 3 m/S 745 mmHg 91%
    22:00 +14°C° 0 mm 3 m/S 745 mmHg 92%
    23:00 +14°C° 0 mm 3 m/S 746 mmHg 94%

    übermorgen, 19 Juli, Freitag

    Zeit Temperatur Niederschläge Wind Luftdruck Luftfeuchtigkeit
    00:00 +14°C° 0 mm 3 m/S 746 mmHg 94%
    01:00 +13°C° 0 mm 3 m/S 746 mmHg 95%
    02:00 +13°C° 0 mm 3 m/S 746 mmHg 95%
    03:00 +13°C° 0 mm 3 m/S 746 mmHg 96%
    04:00 +13°C° 0 mm 3 m/S 746 mmHg 96%
    05:00 +13°C° 0 mm 3 m/S 746 mmHg 97%
    06:00 +14°C° 0 mm 3 m/S 747 mmHg 93%
    07:00 +17°C° 0 mm 4 m/S 747 mmHg 89%
    08:00 +18°C° 0 mm 4 m/S 747 mmHg 85%
    09:00 +20°C° 0.1 mm 4 m/S 747 mmHg 79%
    10:00 +21°C° 0.1 mm 4 m/S 747 mmHg 73%
    11:00 +22°C° 0.1 mm 4 m/S 748 mmHg 67%
    12:00 +23°C° 0.3 mm 4 m/S 748 mmHg 64%
    13:00 +25°C° 0.3 mm 4 m/S 748 mmHg 61%
    14:00 +25°C° 0.3 mm 5 m/S 748 mmHg 58%
    15:00 +25°C° 0 mm 4 m/S 748 mmHg 59%
    16:00 +25°C° 0 mm 4 m/S 748 mmHg 60%
    17:00 +25°C° 0 mm 3 m/S 748 mmHg 62%
    18:00 +22°C° 0 mm 3 m/S 748 mmHg 66%
    19:00 +20°C° 0 mm 2 m/S 748 mmHg 70%
    20:00 +19°C° 0 mm 2 m/S 749 mmHg 75%
    21:00 +18°C° 0 mm 2 m/S 749 mmHg 77%
    22:00 +17°C° 0 mm 2 m/S 749 mmHg 80%
    23:00 +17°C° 0 mm 2 m/S 749 mmHg 82%

    20 Juli, Samstag

    Zeit Temperatur Niederschläge Wind Luftdruck Luftfeuchtigkeit
    00:00 +16°C° 0 mm 2 m/S 749 mmHg 84%
    01:00 +16°C° 0 mm 2 m/S 749 mmHg 85%
    02:00 +16°C° 0 mm 2 m/S 749 mmHg 87%
    03:00 +16°C° 0 mm 2 m/S 750 mmHg 87%
    04:00 +16°C° 0 mm 2 m/S 750 mmHg 88%
    05:00 +16°C° 0 mm 2 m/S 750 mmHg 89%
    06:00 +17°C° 0 mm 2 m/S 750 mmHg 83%
    07:00 +19°C° 0 mm 2 m/S 750 mmHg 78%
    08:00 +21°C° 0 mm 2 m/S 751 mmHg 72%
    09:00 +22°C° 0 mm 3 m/S 751 mmHg 67%
    10:00 +25°C° 0 mm 3 m/S 751 mmHg 61%
    11:00 +26°C° 0 mm 3 m/S 751 mmHg 56%
    12:00 +26°C° 0 mm 3 m/S 751 mmHg 55%
    13:00 +26°C° 0 mm 3 m/S 751 mmHg 53%
    14:00 +27°C° 0 mm 3 m/S 751 mmHg 52%
    15:00 +27°C° 0 mm 3 m/S 751 mmHg 55%
    16:00 +26°C° 0 mm 2 m/S 751 mmHg 58%
    17:00 +26°C° 0 mm 2 m/S 751 mmHg 61%
    18:00 +24°C° 0 mm 2 m/S 751 mmHg 66%
    19:00 +23°C° 0 mm 1 m/S 751 mmHg 70%
    20:00 +21°C° 0 mm 1 m/S 751 mmHg 75%
    21:00 +20°C° 0 mm 1 m/S 751 mmHg 77%
    22:00 +20°C° 0 mm 1 m/S 751 mmHg 79%
    23:00 +19°C° 0 mm 1 m/S 751 mmHg 81%

    21 Juli, Sonntag

    Zeit Temperatur Niederschläge Wind Luftdruck Luftfeuchtigkeit
    00:00 +19°C° 0 mm 1 m/S 751 mmHg 83%
    01:00 +19°C° 0 mm 1 m/S 751 mmHg 85%
    02:00 +18°C° 0 mm 1 m/S 751 mmHg 86%
    03:00 +18°C° 0 mm 1 m/S 751 mmHg 87%
    04:00 +18°C° 0 mm 1 m/S 751 mmHg 87%
    05:00 +18°C° 0 mm 1 m/S 751 mmHg 88%
    06:00 +18°C° 0 mm 0 m/S 751 mmHg 82%
    07:00 +20°C° 0 mm 0 m/S 751 mmHg 76%
    08:00 +22°C° 0 mm 0 m/S 751 mmHg 71%
    09:00 +23°C° 0 mm 0 m/S 751 mmHg 65%
    10:00 +24°C° 0 mm 0 m/S 751 mmHg 59%
    11:00 +28°C° 0 mm 1 m/S 751 mmHg 52%
    12:00 +28°C° 0 mm 1 m/S 751 mmHg 50%
    13:00 +28°C° 0 mm 1 m/S 751 mmHg 48%
    14:00 +29°C° 0 mm 1 m/S 751 mmHg 46%
    15:00 +28°C° 0 mm 1 m/S 751 mmHg 49%
    16:00 +28°C° 0 mm 2 m/S 751 mmHg 53%
    17:00 +28°C° 0 mm 2 m/S 751 mmHg 56%
    18:00 +26°C° 0 mm 1 m/S 751 mmHg 60%
    19:00 +24°C° 0 mm 1 m/S 751 mmHg 65%
    20:00 +23°C° 0 mm 1 m/S 751 mmHg 69%
    21:00 +22°C° 0 mm 1 m/S 751 mmHg 71%
    22:00 +21°C° 0 mm 1 m/S 751 mmHg 72%
    23:00 +19°C° 0 mm 0 m/S 751 mmHg 73%

    22 Juli, Montag

    Zeit Temperatur Niederschläge Wind Luftdruck Luftfeuchtigkeit
    00:00 +19°C° 0 mm 0 m/S 751 mmHg 72%
    01:00 +21°C° 0 mm 1 m/S 751 mmHg 71%
    02:00 +21°C° 0 mm 1 m/S 751 mmHg 71%
    03:00 +21°C° 0 mm 1 m/S 751 mmHg 72%
    04:00 +21°C° 0 mm 1 m/S 751 mmHg 73%
    05:00 +21°C° 0 mm 1 m/S 751 mmHg 75%
    06:00 +21°C° 0 mm 2 m/S 751 mmHg 73%
    07:00 +23°C° 0 mm 2 m/S 751 mmHg 71%
    08:00 +25°C° 0 mm 2 m/S 751 mmHg 69%
    09:00 +25°C° 0.6 mm 1 m/S 751 mmHg 72%
    10:00 +25°C° 0.6 mm 1 m/S 751 mmHg 74%
    11:00 +25°C° 0.6 mm 1 m/S 751 mmHg 76%
    12:00 +26°C° 0.3 mm 1 m/S 751 mmHg 71%
    13:00 +27°C° 0.3 mm 2 m/S 751 mmHg 66%
    14:00 +28°C° 0.3 mm 2 m/S 750 mmHg 62%
    15:00 +27°C° 1 mm 2 m/S 750 mmHg 69%
    16:00 +26°C° 1 mm 1 m/S 750 mmHg 76%
    17:00 +24°C° 1 mm 1 m/S 750 mmHg 83%
    18:00 +24°C° 0.4 mm 1 m/S 749 mmHg 85%
    19:00 +23°C° 0.4 mm 1 m/S 749 mmHg 88%
    20:00 +21°C° 0.4 mm 2 m/S 749 mmHg 90%
    21:00 +20°C° 0.5 mm 2 m/S 749 mmHg 92%
    22:00 +20°C° 0.5 mm 2 m/S 749 mmHg 94%
    23:00 +19°C° 0.5 mm 2 m/S 749 mmHg 96%
    Mehr zeigen